Location: Unspecified
(52.4292°N, 19.3359°E)
Time: 23:40:36
(UTC+02:00)

A-11 Canister half - Pass Details

Date: 21 May 2024
Orbit: 1515 x 1685 km, 47.2° (Epoch: 19 June)

Event Time Altitude Azimuth Distance (km) Brightness Sun altitude
Rises 07:39:00 0° 277° (W) 4,692 11.0 25.0°
Reaches altitude 10° 07:42:08 10° 273° (W) 3,695 10.5 25.4°
Maximum altitude 07:51:03 55° 199° (SSW) 1,779 9.6 26.8°
Drops below altitude 10° 07:59:57 10° 125° (SE) 3,684 12.0 28.2°
Sets 08:03:04 0° 121° (ESE) 4,677 12.5 28.6°
